Notices

What's New in latest Release from April 7th, 2021:

- Updated Glossary, including Speed of Maximum Gust, and Total Hourly Precipitation

- Updated national and regional climate services offices contacts and prices information

- Addition of station inventory lists for 1981-2010, 1971-2000, and 1961-1990 Normals.

If you haven't already, please take our survey and provide feedback about our website: https://eccc.sondage-survey.ca/f/LanguageSelection.aspx?s=442ca660-fcf1-47c0-95a9-59707d6fd709

Hourly Data Report for January 08, 2017

TORONTO CITY
ONTARIO

43°40'00.000" N
79°24'00.000" W
112.50 m
6158355
71508
XTO

Download Data

Hourly Data (January 2017)
Hourly Data Report for January 8, 2017
TIME
LST
Temp Definition
°C
Dew Point Definition
°C
Rel Hum Definition
%
Precip. Amount Definition
mm

Wind Dir Definition
10's deg

Wind Spd Definition
km/h
Visibility Definition
km
Stn Press Definition
kPa
Hmdx Definition


Wind Chill Definition


Weather Definition


00:00 -10.8 -14.7 73 0.0 LegendMM LegendMM   100.88     LegendNANA
01:00 -10.6 -14.9 71 0.0 LegendMM LegendMM   100.80     LegendNANA
02:00 -10.1 -14.4 71 0.0 LegendMM LegendMM   100.77     LegendNANA
03:00 -9.3 -13.0 75 0.0 LegendMM LegendMM   100.78     LegendNANA
04:00 -8.3 -13.6 66 0.0 LegendMM LegendMM   100.79     LegendNANA
05:00 -8.5 -13.0 70 0.0 LegendMM LegendMM   100.93     LegendNANA
06:00 -9.0 -16.9 53 0.0 LegendMM LegendMM   101.03     LegendNANA
07:00 -9.7 -16.7 56 0.0 LegendMM LegendMM   101.12     LegendNANA
08:00 -10.3 -16.7 59 0.0 LegendMM LegendMM   101.21     LegendNANA
09:00 -10.0 -18.9 48 0.0 LegendMM LegendMM   101.32     LegendNANA
10:00 -9.6 -15.8 61 0.0 LegendMM LegendMM   101.42     LegendNANA
11:00 -9.1 -15.8 58 0.0 LegendMM LegendMM   101.53     LegendNANA
12:00 -9.8 -18.1 51 0.0 LegendMM LegendMM   101.60     LegendNANA
13:00 -8.9 -18.0 48 0.0 LegendMM LegendMM   101.68     LegendNANA
14:00 -9.2 -18.6 47 0.0 LegendMM LegendMM   101.74     LegendNANA
15:00 -9.6 -17.2 54 0.0 LegendMM LegendMM   101.84     LegendNANA
16:00 -10.2 -16.0 62 0.0 LegendMM LegendMM   101.89     LegendNANA
17:00 -10.5 -14.8 71 0.0 LegendMM LegendMM   101.96     LegendNANA
18:00 -10.4 -17.8 54 0.0 LegendMM LegendMM   102.03     LegendNANA
19:00 -10.7 -17.4 58 0.0 LegendMM LegendMM   102.09     LegendNANA
20:00 -10.8 -17.2 59 0.0 LegendMM LegendMM   102.15     LegendNANA
21:00 -10.9 -15.9 67 0.0 LegendMM LegendMM   102.21     LegendNANA
22:00 -10.6 -15.3 68 0.0 LegendMM LegendMM   102.19     LegendNANA
23:00 -9.9 -14.4 69 0.0 LegendMM LegendMM   102.12     LegendNANA

Notes on Data Quality.

Legend

  • E = Estimated
  • M = Missing
  • NA = Not Available*
  • [empty] = Indicates an unobserved value
Date modified: